Hourly Data Report for October 01, 2017

All times are specified in Local Standard Time (LST). Add 1 hour to adjust for Daylight Saving Time where and when it is observed.

LAC LA MARTRE
NORTHWEST TERRITORIES

63°08'01.070" N
117°14'41.050" W
271.30 m
2202678
71163
WMT

Download Data

Hourly Data (October 2017)
Hourly Data Report for October 1, 2017
Temp Definition
°C
Dew Point Temp Definition
°C
Rel Hum Definition
%
Wind Dir Definition
10's deg

Wind Spd Definition
km/h
Visibility Definition
km
Stn Press Definition
kPa
Hmdx Definition


Wind Chill Definition


Weather Definition


TIME
00:00 2.3 1.7 96 34 21   97.53     LegendNANA
01:00 2.6 1.8 94 34 20   97.61     LegendNANA
02:00 2.7 1.8 93 34 22   97.69     LegendNANA
03:00 2.8 1.8 93 33 22   97.78     LegendNANA
04:00 2.9 1.4 90 34 20   97.87     LegendNANA
05:00 2.8 0.9 87 34 22   97.99     LegendNANA
06:00 2.9 0.9 87 34 20   98.08     LegendNANA
07:00 2.9 0.6 85 34 21   98.18     LegendNANA
08:00 2.8 0.3 84 34 19   98.31     LegendNANA
09:00 3.0 0.2 82 34 22   98.42     LegendNANA
10:00 4.1 -0.1 74 34 19   98.51     LegendNANA
11:00 3.2 0.9 85 32 23   98.60     LegendNANA
12:00 3.6 -0.3 75 33 22   98.68     LegendNANA
13:00 4.3 -0.2 72 33 23   98.75     LegendNANA
14:00 5.7 -1.0 62 33 17   98.80     LegendNANA
15:00 4.6 -1.3 65 32 21   98.88     LegendNANA
16:00 4.4 -2.8 60 33 19   98.97     LegendNANA
17:00 4.0 -3.9 56 34 16   99.07     LegendNANA
18:00 3.4 -5.1 54 34 18   99.14     LegendNANA
19:00 3.0 -5.2 55 35 17   99.21     LegendNANA
20:00 2.2 -4.6 61 34 9   99.27     LegendNANA
21:00 2.2 -3.8 64 34 10   99.31     LegendNANA
22:00 3.6 -2.4 65 32 11   99.32     LegendNANA
23:00 3.8 -2.0 66 32 13   99.34     LegendNANA

Notes on Data Quality.

Legend

  • E = Estimated
  • M = Missing
  • NA = Not Available
  • ‡ = Partner data that is not subject to review by the National Climate Archives
Date modified: